Ames, IA

10:54 PM CST on December 14, 2017 (GMT -0600)
Ames Municipal

Weather History for KAMW - August, 2013

Change the Weather History Date:

Saturday, August 17, 2013

  Actual Average Record
Temperature  
Mean Temperature 66 °F 71 °F  
Max Temperature 81 °F 82 °F 93 °F (2003)
Min Temperature 50 °F 61 °F 46 °F (2012)
Degree Days  
Heating Degree Days 0 0  
Month to date heating degree days 5 0  
Since 1 June heating degree days 56 28  
Since 1 July heating degree days 14 4  
Cooling Degree Days 1 7  
Month to date cooling degree days 68 126  
Year to date cooling degree days 570 612  
Since 1 June cooling degree days 515 563  
Growing Degree Days 15 (Base 50)    
Moisture  
Dew Point 52 °F    
Average Humidity 66    
Maximum Humidity 96    
Minimum Humidity 36    
Precipitation  
Precipitation 0.00 in 0.14 in 1.28 in (1980)
Month to date precipitation 0.79 2.51  
Sea Level Pressure  
Sea Level Pressure 30.19 in    
Wind  
Wind Speed 2 mph (SSE)    
Max Wind Speed 12 mph    
Max Gust Speed 14 mph    
Visibility 7 miles    
Events Fog    
T = Trace of Precipitation, MM = Missing Value Source: NWS Daily Summary

Daily Weather History Graph

Daily Weather History Graph

Search for Another Location

Airport or City:

Trip Planner

Search our weather history database for the weather conditions in past years. The results will help you decide how hot, cold, wet, or windy it might be!

Date:

Astronomy

Aug. 17, 2013 Rise Set
Actual Time 6:24 AM CDT 8:11 PM CDT
Civil Twilight 5:54 AM CDT 8:41 PM CDT
Nautical Twilight 5:18 AM CDT 9:17 PM CDT
Astronomical Twilight 4:39 AM CDT 9:56 PM CDT
Moon 5:29 PM CDT (8/17) 2:26 AM CDT (8/17)
Length of Visible Light 14h 46m
Length of Day
13h 46m
Waxing Gibbous, 84% of the Moon is Illuminated
Aug 17
Waxing Gibbous
Aug 20
Full
Aug 28
Last Quarter
Sep 5
New
Sep 12
First Quarter

Hourly Weather History & Observations

Time (CDT) Temp. Dew Point Humidity Pressure Visibility Wind Dir Wind Speed Gust Speed Precip Events Conditions
12:53 AM 54.0 °F 52.0 °F 93% 30.19 in 9.0 mi Calm Calm - N/A   Clear
1:53 AM 55.0 °F 52.0 °F 89% 30.19 in 9.0 mi Calm Calm - N/A   Clear
2:53 AM 53.1 °F 51.1 °F 93% 30.19 in 8.0 mi Calm Calm - N/A   Clear
3:40 AM 53.6 °F 51.8 °F 94% 30.21 in 1.8 mi Calm Calm - N/A   Clear
3:51 AM 51.8 °F 51.8 °F 100% 30.21 in 3.0 mi Calm Calm - N/A   Clear
3:53 AM 52.0 °F 50.0 °F 93% 30.19 in 6.0 mi Calm Calm - N/A   Clear
4:53 AM 51.1 °F 48.9 °F 92% 30.20 in 8.0 mi Calm Calm - N/A   Clear
5:35 AM 51.8 °F 50.0 °F 94% 30.22 in 0.8 mi Calm Calm - N/A   Clear
5:46 AM 50.0 °F 48.2 °F 94% 30.22 in 2.0 mi Calm Calm - N/A   Clear
5:53 AM 50.0 °F 48.9 °F 96% 30.20 in 8.0 mi Calm Calm - N/A   Clear
6:18 AM 50.0 °F 48.2 °F 94% 30.22 in 1.8 mi Calm Calm - N/A   Clear
6:28 AM 51.8 °F 50.0 °F 94% 30.22 in 0.5 mi Calm Calm - N/A Fog Fog
6:36 AM 51.8 °F 48.2 °F 88% 30.23 in 2.5 mi Calm Calm - N/A   Clear
6:43 AM 51.8 °F 48.2 °F 88% 30.23 in 5.0 mi Calm Calm - N/A   Clear
6:53 AM 52.0 °F 50.0 °F 93% 30.22 in 5.0 mi Calm Calm - N/A   Clear
7:53 AM 59.0 °F 55.0 °F 87% 30.22 in 8.0 mi Calm Calm - N/A   Clear
8:53 AM 64.0 °F 55.9 °F 75% 30.22 in 10.0 mi Calm Calm - N/A   Clear
9:53 AM 70.0 °F 55.9 °F 61% 30.22 in 10.0 mi Variable 3.5 mph - N/A   Clear
10:53 AM 73.9 °F 55.0 °F 52% 30.21 in 10.0 mi SSE 4.6 mph - N/A   Clear
11:53 AM 75.9 °F 55.0 °F 48% 30.20 in 10.0 mi SE 3.5 mph - N/A   Clear
12:53 PM 79.0 °F 54.0 °F 42% 30.19 in 10.0 mi Variable 4.6 mph - N/A   Clear
1:53 PM 77.0 °F 50.0 °F 39% 30.18 in 10.0 mi SE 4.6 mph - N/A   Mostly Cloudy
2:53 PM 77.0 °F 51.1 °F 40% 30.17 in 10.0 mi South 4.6 mph - N/A   Partly Cloudy
3:53 PM 80.1 °F 51.1 °F 36% 30.15 in 10.0 mi SE 4.6 mph - N/A   Clear
4:53 PM 79.0 °F 51.1 °F 38% 30.14 in 10.0 mi South 6.9 mph - N/A   Clear
5:53 PM 79.0 °F 51.1 °F 38% 30.13 in 10.0 mi South 5.8 mph - N/A   Clear
6:53 PM 77.0 °F 54.0 °F 45% 30.13 in 10.0 mi SSE 4.6 mph - N/A   Clear
7:53 PM 72.0 °F 57.0 °F 59% 30.12 in 10.0 mi Calm Calm - N/A   Clear
8:53 PM 66.0 °F 57.0 °F 73% 30.12 in 10.0 mi Calm Calm - N/A   Clear
9:53 PM 62.1 °F 57.0 °F 84% 30.14 in 9.0 mi Calm Calm - N/A   Partly Cloudy
10:53 PM 61.0 °F 55.9 °F 83% 30.14 in 10.0 mi Calm Calm - N/A   Clear
11:53 PM 60.1 °F 57.0 °F 90% 30.14 in 9.0 mi Calm Calm - N/A   Clear